N1BFO Weather Reports


Display with metric or nautical units.
time (UTC)temp
F
wind
direction
speed
MPH
gust
MPH
rain 1hr
in
rain 24hr
in
rain mn
in
humidity
%
barometer
mb
20260506171026 74 104 1.0 7.0 0.00 0.00 0.00 55 1006.4
20260506170530 74 262 2.0 9.0 0.00 0.00 0.00 55 1006.4
20260506170043 74 175 3.0 9.0 0.00 0.00 0.00 56 1006.5
20260506165530 73 126 1.0 7.0 0.00 0.00 0.00 57 1006.6
20260506165028 72 257 2.0 12.0 0.00 0.00 0.00 57 1006.6
20260506164546 72 272 2.0 12.0 0.00 0.00 0.00 58 1006.8
20260506164026 71 258 1.0 12.0 0.00 0.00 0.00 59 1006.9
20260506163527 71 283 2.0 15.0 0.00 0.00 0.00 58 1007.0
20260506163042 71 99 2.0 15.0 0.00 0.00 0.00 59 1007.1
20260506162530 71 202 2.0 5.0 0.00 0.00 0.00 58 1007.1
20260506162026 71 244 1.0 9.0 0.00 0.00 0.00 60 1007.2
20260506161544 71 252 2.0 9.0 0.00 0.00 0.00 59 1007.3
20260506161027 71 245 2.0 11.0 0.00 0.00 0.00 59 1007.4
20260506160531 71 273 2.0 11.0 0.00 0.00 0.00 59 1007.6
20260506160057 71 150 2.0 10.0 0.00 0.00 0.00 59 1007.7
20260506155526 71 295 2.0 6.0 0.00 0.00 0.00 60 1007.6
20260506155027 71 232 1.0 9.0 0.00 0.00 0.00 60 1007.9
20260506154539 71 283 3.0 9.0 0.00 0.00 0.00 60 1007.9
20260506154029 71 283 1.0 9.0 0.00 0.00 0.00 60 1007.9
20260506153528 71 216 2.0 9.0 0.00 0.00 0.00 60 1007.9
20260506153035 71 276 1.0 6.0 0.00 0.00 0.00 59 1008.1
20260506152527 71 190 1.0 6.0 0.00 0.00 0.00 61 1008.3
20260506152027 72 240 2.0 6.0 0.00 0.00 0.00 60 1008.2
20260506151545 72 268 2.0 9.0 0.00 0.00 0.00 61 1008.3
20260506151025 71 161 1.0 9.0 0.00 0.00 0.00 61 1008.3
20260506150525 71 135 1.0 11.0 0.00 0.00 0.00 60 1008.5
20260506150035 71 181 2.0 11.0 0.00 0.00 0.00 62 1008.4
20260506145526 71 265 3.0 11.0 0.00 0.00 0.00 61 1008.5
20260506145027 71 139 1.0 8.0 0.00 0.00 0.00 63 1008.7
20260506144557 71 145 1.0 8.0 0.00 0.00 0.00 63 1008.6
20260506144030 70 282 2.0 9.0 0.00 0.00 0.00 62 1008.5
20260506143531 71 299 1.0 9.0 0.00 0.00 0.00 63 1008.7
20260506143039 71 186 2.0 6.0 0.00 0.00 0.00 62 1008.6
20260506142525 71 140 1.0 5.0 0.00 0.00 0.00 64 1008.5
20260506142024 71 193 2.0 8.0 0.00 0.00 0.00 62 1008.4
20260506141540 70 168 2.0 8.0 0.00 0.00 0.00 64 1008.3
20260506141024 70 174 3.0 8.0 0.00 0.00 0.00 64 1008.3
20260506140526 70 274 2.0 8.0 0.00 0.00 0.00 66 1008.3
20260506140043 70 207 3.0 8.0 0.00 0.00 0.00 64 1008.4
20260506135530 70 248 3.0 7.0 0.00 0.00 0.00 65 1008.4
20260506135024 69 274 1.0 4.0 0.00 0.00 0.00 68 1008.3
20260506134538 69 105 1.0 4.0 0.00 0.00 0.00 68 1008.5
20260506134027 68 292 1.0 5.0 0.00 0.00 0.00 69 1008.6
20260506133523 67 250 1.0 7.0 0.00 0.00 0.00 69 1008.6
20260506133040 67 174 1.0 7.0 0.00 0.00 0.00 70 1008.8
20260506132528 67 270 2.0 7.0 0.00 0.00 0.00 71 1008.9
20260506132023 66 133 1.0 8.0 0.00 0.00 0.00 70 1008.9
20260506131543 66 160 2.0 9.0 0.00 0.00 0.00 71 1009.0
20260506131027 66 168 2.0 9.0 0.00 0.00 0.00 71 1009.0
20260506130524 66 151 1.0 4.0 0.00 0.00 0.00 71 1008.9
20260506130037 66 152 1.0 3.0 0.00 0.00 0.00 73 1008.9
20260506125523 66 197 1.0 8.0 0.00 0.00 0.00 72 1008.9
20260506125026 65 262 2.0 8.0 0.00 0.00 0.00 72 1009.0
20260506124537 65 164 1.0 4.0 0.00 0.00 0.00 73 1009.0
20260506124030 65 203 2.0 5.0 0.00 0.00 0.00 72 1008.9
20260506123526 65 102 0.0 5.0 0.00 0.00 0.00 74 1008.8
20260506123036 65 135 1.0 5.0 0.00 0.00 0.00 74 1009.0
20260506122525 64 281 0.0 5.0 0.00 0.00 0.00 74 1008.9
20260506122026 64 202 1.0 7.0 0.00 0.00 0.00 75 1009.0
20260506121542 64 269 2.0 7.0 0.00 0.00 0.00 74 1009.1
20260506121027 64 223 1.0 9.0 0.00 0.00 0.00 74 1009.0
20260506120527 65 210 1.0 9.0 0.00 0.00 0.00 75 1008.9
20260506120039 64 248 1.0 9.0 0.00 0.00 0.00 76 1008.9
20260506115525 62 197 1.0 6.0 0.00 0.00 0.00 77 1009.0
20260506115023 62 222 1.0 6.0 0.00 0.00 0.00 78 1009.1
20260506114543 62 153 1.0 6.0 0.00 0.00 0.00 78 1009.1
20260506114026 62 167 1.0 5.0 0.00 0.00 0.00 78 1009.2
20260506113525 62 176 1.0 5.0 0.00 0.00 0.00 77 1009.2
20260506113038 62 264 1.0 4.0 0.00 0.00 0.00 77 1009.2
20260506112526 62 253 1.0 3.0 0.00 0.00 0.00 78 1009.5
20260506112026 62 154 1.0 4.0 0.00 0.00 0.00 78 1009.5
20260506111536 62 257 0.0 6.0 0.00 0.00 0.00 77 1009.4
20260506111028 62 263 2.0 6.0 0.00 0.00 0.00 77 1009.2
20260506110528 62 165 1.0 6.0 0.00 0.00 0.00 76 1009.2
20260506110042 62 165 1.0 4.0 0.00 0.00 0.00 77 1009.1
20260506105527 61 179 1.0 4.0 0.00 0.00 0.00 78 1009.2
20260506105027 61 244 0.0 8.0 0.00 0.00 0.00 79 1009.3
20260506104540 60 216 2.0 8.0 0.00 0.00 0.00 80 1009.3
20260506104027 60 217 1.0 4.0 0.00 0.00 0.00 81 1009.3
20260506103525 59 155 0.0 4.0 0.00 0.00 0.00 81 1009.3
20260506103039 59 179 1.0 4.0 0.00 0.00 0.00 81 1009.1
20260506102529 59 83 1.0 3.0 0.00 0.00 0.00 81 1009.1
20260506102026 59 116 1.0 3.0 0.00 0.00 0.00 81 1009.1
20260506101537 59 276 0.0 3.0 0.00 0.00 0.00 81 1009.1
20260506101025 59 215 0.0 2.0 0.00 0.00 0.00 80 1009.1
20260506100526 59 147 0.0 7.0 0.00 0.00 0.00 80 1009.0
20260506100100 59 269 1.0 7.0 0.00 0.00 0.00 80 1009.0
20260506095528 59 188 0.0 3.0 0.00 0.00 0.00 81 1009.0
20260506095028 59 215 0.0 6.0 0.00 0.00 0.00 81 1009.1
20260506094543 59 282 1.0 6.0 0.00 0.00 0.00 81 1009.0
20260506094028 59 209 0.0 4.0 0.00 0.00 0.00 80 1008.9
20260506093527 59 210 1.0 4.0 0.00 0.00 0.00 80 1008.9
20260506093038 59 155 0.0 3.0 0.00 0.00 0.00 80 1008.9
20260506092529 59 281 0.0 4.0 0.00 0.00 0.00 80 1009.0
20260506092026 59 91 1.0 4.0 0.00 0.00 0.00 80 1008.9
20260506091537 59 206 0.0 3.0 0.00 0.00 0.00 80 1009.1
20260506091025 59 179 0.0 2.0 0.00 0.00 0.00 79 1009.0
20260506090527 59 0 0.0 8.0 0.00 0.00 0.00 79 1008.9
20260506090044 59 221 1.0 8.0 0.00 0.00 0.00 79 1009.0
20260506085526 59 124 0.0 5.0 0.00 0.00 0.00 78 1009.1
20260506085028 59 283 1.0 5.0 0.00 0.00 0.00 78 1009.0
20260506084543 59 273 1.0 4.0 0.00 0.00 0.00 78 1009.1
20260506084027 60 155 1.0 10.0 0.00 0.00 0.00 78 1009.1
20260506083528 60 221 0.0 10.0 0.00 0.00 0.00 77 1009.1
20260506083042 60 287 0.0 3.0 0.00 0.00 0.00 77 1009.1
20260506082526 60 0 1.0 8.0 0.00 0.00 0.00 77 1009.1
20260506082026 60 0 0.0 8.0 0.00 0.00 0.00 77 1009.1
20260506081543 60 288 1.0 7.0 0.00 0.00 0.00 77 1009.1
20260506081027 60 252 0.0 3.0 0.00 0.00 0.00 77 1009.1
20260506080526 60 45 0.0 2.0 0.00 0.00 0.00 76 1009.2
20260506073526 61 120 0.0 4.0 0.00 0.00 0.00 74 1009.0
20260506073037 61 257 1.0 4.0 0.00 0.00 0.00 74 1009.0
20260506072523 61 0 0.0 4.0 0.00 0.00 0.00 74 1009.0
20260506072023 61 0 1.0 7.0 0.00 0.00 0.00 74 1009.0
20260506071541 62 214 0.0 7.0 0.00 0.00 0.00 73 1009.0
20260506071024 62 255 1.0 7.0 0.00 0.00 0.00 73 1008.9
20260506070523 62 0 0.0 4.0 0.00 0.00 0.00 72 1008.9
20260506062024 62 264 0.0 7.0 0.00 0.00 0.00 70 1008.7
20260506061538 62 0 2.0 7.0 0.00 0.00 0.00 70 1008.7
20260506061026 62 260 1.0 4.0 0.00 0.00 0.00 69 1008.7
20260506060524 62 266 0.0 3.0 0.00 0.00 0.00 69 1008.8
20260506051024 62 205 1.0 6.0 0.00 0.00 0.00 68 1009.1
20260506050526 62 122 0.0 5.0 0.00 0.00 0.00 68 1009.1
20260506045024 62 165 0.0 7.0 0.00 0.00 0.00 68 1009.1
20260506044544 62 193 0.0 3.0 0.00 0.00 0.00 68 1009.1
20260506044028 62 0 0.0 2.0 0.00 0.00 0.00 68 1009.1
20260506043525 62 0 0.0 3.0 0.00 0.00 0.00 68 1009.2
20260506043038 62 266 0.0 3.0 0.00 0.00 0.00 67 1009.2
20260506042531 62 157 0.0 6.0 0.00 0.00 0.00 67 1009.2
20260506042026 62 185 0.0 6.0 0.00 0.00 0.00 67 1009.2
20260506041541 62 147 0.0 4.0 0.00 0.00 0.00 67 1009.2
20260506041024 62 50 1.0 4.0 0.00 0.00 0.00 66 1009.2
20260506040525 62 161 1.0 3.0 0.00 0.00 0.00 67 1009.2
20260506040039 62 276 0.0 6.0 0.00 0.00 0.00 66 1009.3
20260506035531 62 277 0.0 6.0 0.00 0.00 0.00 66 1009.2
20260506035025 62 158 1.0 6.0 0.00 0.00 0.00 66 1009.2
20260506034538 62 81 0.0 5.0 0.00 0.00 0.00 66 1009.2
20260506034026 63 0 0.0 5.0 0.00 0.00 0.00 65 1009.2
20260506033527 63 253 1.0 7.0 0.00 0.00 0.00 65 1009.1
20260506033042 63 267 1.0 7.0 0.00 0.00 0.00 64 1009.1
20260506032528 63 141 1.0 6.0 0.00 0.00 0.00 64 1009.1
20260506032031 63 232 2.0 6.0 0.00 0.00 0.00 63 1009.1
20260506031538 64 198 1.0 6.0 0.00 0.00 0.00 63 1009.1
20260506031025 64 270 1.0 6.0 0.00 0.00 0.00 62 1009.1
20260506030529 64 276 2.0 6.0 0.00 0.00 0.00 62 1009.1
20260506030055 64 246 2.0 9.0 0.00 0.00 0.00 62 1009.2
20260506025525 64 154 1.0 11.0 0.00 0.00 0.00 61 1009.0
20260506025031 64 148 3.0 11.0 0.00 0.00 0.00 61 1009.1
20260506024549 64 297 0.0 5.0 0.00 0.00 0.00 61 1009.0
20260506024026 64 258 2.0 5.0 0.00 0.00 0.00 61 1009.1
20260506023529 65 0 1.0 10.0 0.00 0.00 0.00 60 1009.0
20260506023043 65 266 0.0 10.0 0.00 0.00 0.00 60 1009.0
20260506022529 65 270 2.0 10.0 0.00 0.00 0.00 60 1009.0
20260506022025 65 154 1.0 4.0 0.00 0.00 0.00 60 1009.1
20260506021541 65 276 1.0 4.0 0.00 0.00 0.00 59 1009.1
20260506021029 65 224 2.0 5.0 0.00 0.00 0.00 59 1009.1
20260506020531 66 273 1.0 5.0 0.00 0.00 0.00 59 1009.1
20260506020039 66 251 1.0 5.0 0.00 0.00 0.00 59 1009.0
20260506015527 66 3 1.0 5.0 0.00 0.00 0.00 59 1009.0
20260506015027 66 185 1.0 9.0 0.00 0.00 0.00 59 1009.1
20260506014553 66 203 2.0 9.0 0.00 0.00 0.00 58 1009.0
20260506014026 66 268 1.0 10.0 0.00 0.00 0.00 58 1009.0
20260506013527 67 249 2.0 10.0 0.00 0.00 0.00 57 1008.8
20260506013036 67 221 1.0 7.0 0.00 0.00 0.00 57 1008.6
20260506012525 67 263 2.0 8.0 0.00 0.00 0.00 57 1008.5
20260506012027 67 290 1.0 8.0 0.00 0.00 0.00 56 1008.5
20260506011541 68 266 1.0 9.0 0.00 0.00 0.00 56 1008.4
20260506011028 68 279 2.0 9.0 0.00 0.00 0.00 55 1008.3
20260506010526 68 275 2.0 8.0 0.00 0.00 0.00 54 1008.2
20260506010049 68 277 2.0 10.0 0.00 0.00 0.00 54 1008.1
20260506005525 69 216 2.0 10.0 0.00 0.00 0.00 53 1008.1
20260506005023 69 281 3.0 13.0 0.00 0.00 0.00 53 1007.9
20260506004548 69 283 1.0 13.0 0.00 0.00 0.00 52 1007.9
20260506004024 69 288 3.0 13.0 0.00 0.00 0.00 52 1007.9
20260506003526 70 160 3.0 11.0 0.00 0.00 0.00 51 1007.7
20260506003041 70 281 3.0 10.0 0.00 0.00 0.00 51 1007.4
20260506002526 70 221 3.0 9.0 0.00 0.00 0.00 50 1007.5
20260506002026 70 234 3.0 11.0 0.00 0.00 0.00 49 1007.5
20260506001546 71 135 3.0 11.0 0.00 0.00 0.00 49 1007.4
20260506001026 71 131 2.0 10.0 0.00 0.00 0.00 48 1007.4
20260506000529 71 257 3.0 10.0 0.00 0.00 0.00 48 1007.3
20260506000042 72 179 2.0 10.0 0.00 0.00 0.00 47 1007.2
20260505235524 72 152 2.0 10.0 0.00 0.00 0.00 46 1007.2
20260505235024 72 281 1.0 10.0 0.00 0.00 0.00 46 1007.0
20260505234536 73 212 2.0 10.0 0.00 0.00 0.00 45 1006.9
20260505234029 73 95 3.0 11.0 0.00 0.00 0.00 45 1006.8
20260505233527 73 146 3.0 13.0 0.00 0.00 0.00 44 1006.8
20260505233035 73 177 5.0 13.0 0.00 0.00 0.00 44 1006.7
20260505232525 73 278 2.0 14.0 0.00 0.00 0.00 44 1006.6
20260505232025 74 228 4.0 14.0 0.00 0.00 0.00 43 1006.6
20260505231535 74 225 3.0 11.0 0.00 0.00 0.00 43 1006.6
20260505231027 74 174 5.0 11.0 0.00 0.00 0.00 43 1006.5
20260505230526 74 318 2.0 12.0 0.00 0.00 0.00 44 1006.4
20260505230047 74 250 2.0 12.0 0.00 0.00 0.00 42 1006.5
20260505225525 75 265 3.0 17.0 0.00 0.00 0.00 42 1006.3
20260505225028 75 177 3.0 17.0 0.00 0.00 0.00 41 1006.1
20260505224541 75 274 4.0 17.0 0.00 0.00 0.00 41 1006.1
20260505224026 75 260 3.0 15.0 0.00 0.00 0.00 41 1006.1
20260505223524 76 215 5.0 15.0 0.00 0.00 0.00 41 1006.0
20260505223044 76 158 4.0 13.0 0.00 0.00 0.00 41 1005.9
20260505222528 76 283 3.0 11.0 0.00 0.00 0.00 42 1005.6
20260505222028 77 223 3.0 11.0 0.00 0.00 0.00 41 1005.5
20260505221536 77 287 2.0 8.0 0.00 0.00 0.00 41 1005.4
20260505221028 77 276 3.0 15.0 0.00 0.00 0.00 41 1005.3
20260505220525 77 294 4.0 15.0 0.00 0.00 0.00 41 1005.0
20260505220046 77 56 3.0 23.0 0.00 0.00 0.00 40 1005.3
20260505215526 78 289 3.0 23.0 0.00 0.00 0.00 40 1005.5
20260505215025 78 217 6.0 23.0 0.00 0.00 0.00 38 1005.7
20260505214544 78 193 4.0 14.0 0.00 0.00 0.00 39 1005.6
20260505214026 79 242 4.0 14.0 0.00 0.00 0.00 38 1005.4
20260505213529 79 271 3.0 14.0 0.00 0.00 0.00 38 1005.2
20260505213046 79 138 3.0 9.0 0.00 0.00 0.00 38 1005.2
20260505212533 80 101 2.0 12.0 0.00 0.00 0.00 37 1005.1
20260505212030 80 328 4.0 12.0 0.00 0.00 0.00 37 1005.0
20260505211543 80 181 4.0 16.0 0.00 0.00 0.00 36 1005.0
20260505211029 80 301 3.0 16.0 0.00 0.00 0.00 37 1004.8
20260505210528 80 285 5.0 16.0 0.00 0.00 0.00 34 1004.8
20260505210045 81 148 3.0 11.0 0.00 0.00 0.00 35 1004.9
20260505205529 81 172 3.0 10.0 0.00 0.00 0.00 35 1004.9
20260505205030 81 243 3.0 10.0 0.00 0.00 0.00 34 1004.9
20260505204537 81 155 3.0 10.0 0.00 0.00 0.00 35 1004.8
20260505204029 81 243 4.0 10.0 0.00 0.00 0.00 34 1004.9
20260505203529 82 183 2.0 9.0 0.00 0.00 0.00 35 1004.7
20260505203048 82 296 4.0 9.0 0.00 0.00 0.00 35 1004.7
20260505202526 82 172 3.0 9.0 0.00 0.00 0.00 36 1004.6
20260505202025 82 276 3.0 13.0 0.00 0.00 0.00 34 1004.8
20260505201543 82 316 3.0 13.0 0.00 0.00 0.00 34 1004.9
20260505201028 82 162 3.0 16.0 0.00 0.00 0.00 35 1004.9
20260505200529 83 285 4.0 16.0 0.00 0.00 0.00 34 1004.9
20260505200038 83 321 3.0 8.0 0.00 0.00 0.00 34 1004.9
20260505195533 83 304 2.0 13.0 0.00 0.00 0.00 37 1004.7
20260505195029 83 105 2.0 13.0 0.00 0.00 0.00 35 1004.8
20260505194538 83 92 3.0 14.0 0.00 0.00 0.00 35 1004.9
20260505194029 83 276 4.0 14.0 0.00 0.00 0.00 35 1004.7
20260505193532 83 171 5.0 14.0 0.00 0.00 0.00 34 1004.8
20260505193052 83 285 3.0 12.0 0.00 0.00 0.00 34 1004.9
20260505192528 83 266 4.0 12.0 0.00 0.00 0.00 33 1004.9
20260505192024 83 275 3.0 12.0 0.00 0.00 0.00 35 1005.1
20260505191544 83 246 4.0 13.0 0.00 0.00 0.00 34 1005.2
20260505191024 83 199 5.0 16.0 0.00 0.00 0.00 34 1005.3
20260505190525 83 184 3.0 16.0 0.00 0.00 0.00 36 1005.2
20260505190043 83 274 4.0 13.0 0.00 0.00 0.00 34 1005.3
20260505185526 83 234 4.0 22.0 0.00 0.00 0.00 33 1005.4
20260505185027 83 277 4.0 22.0 0.00 0.00 0.00 34 1005.5
20260505184539 83 226 3.0 13.0 0.00 0.00 0.00 34 1005.4
20260505184025 83 213 3.0 13.0 0.00 0.00 0.00 34 1005.4
20260505183525 83 293 5.0 13.0 0.00 0.00 0.00 33 1005.5
20260505183037 83 210 4.0 12.0 0.00 0.00 0.00 33 1005.7
20260505182526 83 216 5.0 12.0 0.00 0.00 0.00 33 1005.9
20260505182025 83 57 4.0 10.0 0.00 0.00 0.00 33 1005.8
20260505181536 83 293 3.0 11.0 0.00 0.00 0.00 35 1006.0
20260505181024 83 158 3.0 13.0 0.00 0.00 0.00 36 1006.0
20260505180524 83 266 2.0 13.0 0.00 0.00 0.00 36 1006.1
20260505180045 83 248 3.0 11.0 0.00 0.00 0.00 36 1006.3
20260505175528 83 202 3.0 11.0 0.00 0.00 0.00 35 1006.1
20260505175024 83 178 3.0 9.0 0.00 0.00 0.00 37 1006.1
20260505174540 83 34 3.0 10.0 0.00 0.00 0.00 38 1006.2
20260505174025 83 288 3.0 10.0 0.00 0.00 0.00 37 1006.5
20260505173527 83 237 3.0 8.0 0.00 0.00 0.00 37 1006.4
20260505173039 83 115 2.0 10.0 0.00 0.00 0.00 39 1006.6
20260505172524 82 219 3.0 10.0 0.00 0.00 0.00 40 1006.6
20260505172024 82 141 3.0 11.0 0.00 0.00 0.00 40 1006.7
20260505171546 81 101 3.0 11.0 0.00 0.00 0.00 40 1006.8